Weather Roundup
Issued by NWS Springfield, MO

Home | Current Version | Previous Version | Text Only | Print | Product List | Glossary On
Versions: 1 2 3 4 5 6 7 8 9 10 11 12 13 14 15 16 17 18 19 20 21 22 23 24 25 26 27 28 29 30 31 32 33 34 35 36 37 38 39 40 41 42 43 44 45 46 47 48 49 50
000
NZUS99 KSGF 222059
HRRSGF

HOURLY WEATHER
NATIONAL WEATHER SERVICE SPRINGFIELD MO
400 PM CDT WED OCT 22 2014

......SGF CWA......

CITY           SKY/WX    TMP DP  RH WIND       PRES   REMARKS
SPRINGFIELD    SUNNY     70  48  45 S7        30.15F
JOPLIN         MOSUNNY   72  57  59 E6        30.12F
WEST PLAINS    SUNNY     66  44  45 CALM      30.20F
ROLLA          SUNNY     65  41  41 SE7       30.18F
OSAGE BEACH    SUNNY     70  43  37 SE6       30.17F
BRANSON        SUNNY     72  48  43 E8        30.18F

......SURROUNDING SGF CWA......

CITY           SKY/WX    TMP DP  RH WIND       PRES   REMARKS
CHANUTE        MOSUNNY   75  57  53 S12       30.10S
PARSONS        MOSUNNY   78  58  49 S8G17     30.11S
COFFEYVILLE    SUNNY     78  57  48 SW13      30.09F
EMPORIA        LGT RAIN  75  55  49 S20G28    30.06F
SILOAM SPRINGS PTSUNNY   75  54  46 S8        30.14F
HARRISON AR    SUNNY     69  50  50 SE9       30.17F
NEAR YELLVILLE SUNNY     70  46  43 E6        30.19S

......KANSAS AND MISSOURI......

CITY           SKY/WX    TMP DP  RH WIND       PRES   REMARKS
KANSAS CTY INT MOSUNNY   71  56  58 SE13      30.09F
DOWNTOWN KC    SUNNY     75  56  51 S10       30.09F
COLUMBIA       SUNNY     65  44  46 SE8       30.19F
SEDALIA        SUNNY     70  48  45 SE12      30.16F
ST JOSEPH      SUNNY     73  55  53 SE14      30.08F
ST LOUIS       SUNNY     63  43  48 SE7       30.24F
SPIRIT OF STL  SUNNY     62  42  47 E5        30.23F
KIRKSVILLE     SUNNY     64  45  49 SE14      30.18F
WICHITA        PTSUNNY   78  53  41 S20G31    30.04F
TOPEKA         PTSUNNY   79  56  45 S14       30.06F
OLATHE         SUNNY     72  57  59 SE13      30.10F

......TENNESSEE......

CITY           SKY/WX    TMP DP  RH WIND       PRES   REMARKS
MEMPHIS        SUNNY     69  41  36 N9        30.18F
NASHVILLE      SUNNY     63  41  44 NE9       30.20F

......ARKANSAS.......

CITY           SKY/WX    TMP DP  RH WIND       PRES   REMARKS
FAYETTEVILLE   MOSUNNY   72  53  51 S5        30.13F
FT SMITH       SUNNY     75  51  43 E10       30.12F
LITTLE ROCK    SUNNY     72  47  40 NE10      30.17F

......OKLAHOMA.......

CITY           SKY/WX    TMP DP  RH WIND       PRES   REMARKS
TULSA          MOSUNNY   77  58  51 SE10      30.08F
PONCA CITY     MOSUNNY   80  56  43 S8G18     30.07F
MCALESTER      SUNNY     74  57  55 CALM      30.11F
OKLAHOMA CITY  PTSUNNY   78  57  48 S14       30.08F

......IOWA............

CITY           SKY/WX    TMP DP  RH WIND       PRES   REMARKS
DES MOINES     MOSUNNY   67  47  48 S15       30.12F
QUAD CITIES    SUNNY     61  38  42 S8        30.24F

......ILLINOIS........

CITY           SKY/WX    TMP DP  RH WIND       PRES   REMARKS
QUINCY         SUNNY     62  39  42 VRB6      30.22F
CHICAGO        SUNNY     54  38  54 E8        30.29F




USA.gov is the U.S. government's official web portal to all federal, state and local government web resources and services.